• In Deutschland
  • Länderverzeichnis
  • Für 7 Tage
  • Wassertemperatur
  • Satellitenkarten
  • Wetterkarte
  • Widgets
  • user-avatar
    Anmelden

    Stündliche Wetter Ivancevo

    Heute, 20 Juni, Mittwoch

    Zeit Temperatur Niederschläge Wind Luftdruck Luftfeuchtigkeit
    00:00 +14°C° 0 mm 3 m/S 745 mmHg 92%
    01:00 +13°C° 0 mm 3 m/S 746 mmHg 93%
    02:00 +12°C° 0 mm 3 m/S 746 mmHg 95%
    03:00 +12°C° 0 mm 3 m/S 746 mmHg 93%
    04:00 +12°C° 0 mm 3 m/S 746 mmHg 91%
    05:00 +12°C° 0 mm 3 m/S 746 mmHg 90%
    06:00 +14°C° 0 mm 4 m/S 746 mmHg 80%
    07:00 +17°C° 0 mm 4 m/S 746 mmHg 70%
    08:00 +19°C° 0 mm 5 m/S 746 mmHg 56%
    09:00 +20°C° 0 mm 5 m/S 746 mmHg 52%
    10:00 +20°C° 0 mm 5 m/S 746 mmHg 48%
    11:00 +21°C° 0 mm 6 m/S 746 mmHg 44%
    12:00 +22°C° 0 mm 6 m/S 746 mmHg 42%
    13:00 +22°C° 0 mm 6 m/S 746 mmHg 40%
    14:00 +23°C° 0 mm 6 m/S 746 mmHg 38%
    15:00 +22°C° 0 mm 5 m/S 746 mmHg 40%
    16:00 +22°C° 0 mm 5 m/S 746 mmHg 41%
    17:00 +22°C° 0 mm 5 m/S 746 mmHg 43%
    18:00 +20°C° 0 mm 4 m/S 746 mmHg 51%
    19:00 +19°C° 0 mm 3 m/S 746 mmHg 59%
    20:00 +17°C° 0 mm 2 m/S 746 mmHg 68%
    21:00 +16°C° 0 mm 2 m/S 746 mmHg 70%
    22:00 +14°C° 0 mm 3 m/S 746 mmHg 72%
    23:00 +13°C° 0 mm 3 m/S 747 mmHg 75%

    Morgen, 21 Juni, Donnerstag

    Zeit Temperatur Niederschläge Wind Luftdruck Luftfeuchtigkeit
    00:00 +13°C° 0 mm 2 m/S 747 mmHg 77%
    01:00 +13°C° 0 mm 2 m/S 747 mmHg 79%
    02:00 +12°C° 0 mm 2 m/S 747 mmHg 82%
    03:00 +12°C° 0 mm 3 m/S 747 mmHg 82%
    04:00 +12°C° 0 mm 3 m/S 746 mmHg 82%
    05:00 +12°C° 0 mm 3 m/S 746 mmHg 82%
    06:00 +15°C° 0 mm 4 m/S 746 mmHg 77%
    07:00 +18°C° 0 mm 4 m/S 746 mmHg 71%
    08:00 +20°C° 0 mm 5 m/S 746 mmHg 66%
    09:00 +21°C° 0 mm 5 m/S 745 mmHg 60%
    10:00 +23°C° 0 mm 5 m/S 745 mmHg 55%
    11:00 +25°C° 0 mm 5 m/S 745 mmHg 50%
    12:00 +26°C° 0 mm 5 m/S 744 mmHg 49%
    13:00 +26°C° 0 mm 5 m/S 744 mmHg 48%
    14:00 +27°C° 0 mm 5 m/S 744 mmHg 47%
    15:00 +27°C° 0 mm 5 m/S 743 mmHg 50%
    16:00 +26°C° 0 mm 4 m/S 743 mmHg 52%
    17:00 +26°C° 0 mm 4 m/S 743 mmHg 55%
    18:00 +25°C° 0 mm 4 m/S 742 mmHg 61%
    19:00 +22°C° 0 mm 3 m/S 742 mmHg 68%
    20:00 +21°C° 0 mm 3 m/S 742 mmHg 75%
    21:00 +20°C° 0 mm 3 m/S 741 mmHg 76%
    22:00 +20°C° 0 mm 3 m/S 741 mmHg 78%
    23:00 +19°C° 0 mm 4 m/S 741 mmHg 79%

    übermorgen, 22 Juni, Freitag

    Zeit Temperatur Niederschläge Wind Luftdruck Luftfeuchtigkeit
    00:00 +19°C° 0 mm 4 m/S 740 mmHg 80%
    01:00 +19°C° 0 mm 4 m/S 740 mmHg 80%
    02:00 +19°C° 0 mm 4 m/S 739 mmHg 81%
    03:00 +19°C° 0,2 mm 4 m/S 738 mmHg 84%
    04:00 +19°C° 0,2 mm 4 m/S 738 mmHg 87%
    05:00 +19°C° 0,2 mm 5 m/S 737 mmHg 91%
    06:00 +19°C° 0,3 mm 5 m/S 737 mmHg 90%
    07:00 +20°C° 0,3 mm 5 m/S 737 mmHg 90%
    08:00 +20°C° 0,3 mm 6 m/S 737 mmHg 89%
    09:00 +17°C° 0,6 mm 5 m/S 738 mmHg 91%
    10:00 +15°C° 0,6 mm 4 m/S 738 mmHg 92%
    11:00 +13°C° 0,6 mm 3 m/S 738 mmHg 94%
    12:00 +14°C° 0 mm 3 m/S 739 mmHg 87%
    13:00 +16°C° 0 mm 3 m/S 740 mmHg 81%
    14:00 +17°C° 0 mm 3 m/S 740 mmHg 74%
    15:00 +17°C° 0 mm 3 m/S 740 mmHg 72%
    16:00 +17°C° 0 mm 4 m/S 740 mmHg 70%
    17:00 +17°C° 0 mm 4 m/S 741 mmHg 68%
    18:00 +16°C° 0 mm 3 m/S 741 mmHg 70%
    19:00 +16°C° 0 mm 3 m/S 741 mmHg 71%
    20:00 +14°C° 0 mm 3 m/S 741 mmHg 72%
    21:00 +14°C° 0 mm 3 m/S 742 mmHg 72%
    22:00 +13°C° 0 mm 3 m/S 742 mmHg 73%
    23:00 +13°C° 0 mm 3 m/S 742 mmHg 73%

    23 Juni, Samstag

    Zeit Temperatur Niederschläge Wind Luftdruck Luftfeuchtigkeit
    00:00 +12°C° 0 mm 3 m/S 742 mmHg 74%
    01:00 +12°C° 0 mm 3 m/S 742 mmHg 76%
    02:00 +12°C° 0 mm 2 m/S 743 mmHg 78%
    03:00 +12°C° 0 mm 2 m/S 743 mmHg 80%
    04:00 +12°C° 0 mm 2 m/S 743 mmHg 81%
    05:00 +12°C° 0 mm 2 m/S 743 mmHg 83%
    06:00 +13°C° 0 mm 2 m/S 743 mmHg 79%
    07:00 +13°C° 0 mm 2 m/S 744 mmHg 76%
    08:00 +14°C° 0 mm 2 m/S 744 mmHg 73%
    09:00 +15°C° 0 mm 2 m/S 744 mmHg 66%
    10:00 +17°C° 0 mm 2 m/S 744 mmHg 59%
    11:00 +18°C° 0 mm 2 m/S 744 mmHg 52%
    12:00 +19°C° 0 mm 2 m/S 744 mmHg 50%
    13:00 +19°C° 0 mm 2 m/S 743 mmHg 48%
    14:00 +20°C° 0 mm 2 m/S 743 mmHg 46%
    15:00 +19°C° 0 mm 2 m/S 743 mmHg 49%
    16:00 +19°C° 0 mm 2 m/S 743 mmHg 52%
    17:00 +19°C° 0 mm 2 m/S 743 mmHg 55%
    18:00 +17°C° 0,1 mm 2 m/S 743 mmHg 63%
    19:00 +16°C° 0,1 mm 2 m/S 743 mmHg 71%
    20:00 +15°C° 0,1 mm 2 m/S 743 mmHg 79%
    21:00 +13°C° 0 mm 2 m/S 743 mmHg 83%
    22:00 +12°C° 0 mm 2 m/S 743 mmHg 87%
    23:00 +10°C° 0 mm 2 m/S 743 mmHg 92%

    24 Juni, Sonntag

    Zeit Temperatur Niederschläge Wind Luftdruck Luftfeuchtigkeit
    00:00 +10°C° 0 mm 2 m/S 743 mmHg 93%
    01:00 +9°C° 0 mm 2 m/S 743 mmHg 95%
    02:00 +9°C° 0 mm 2 m/S 743 mmHg 96%
    03:00 +9°C° 0 mm 2 m/S 743 mmHg 95%
    04:00 +10°C° 0 mm 2 m/S 743 mmHg 94%
    05:00 +10°C° 0 mm 2 m/S 743 mmHg 93%
    06:00 +13°C° 0 mm 2 m/S 744 mmHg 85%
    07:00 +15°C° 0 mm 2 m/S 744 mmHg 76%
    08:00 +17°C° 0 mm 2 m/S 744 mmHg 68%
    09:00 +17°C° 0,4 mm 2 m/S 744 mmHg 68%
    10:00 +18°C° 0,4 mm 2 m/S 744 mmHg 68%
    11:00 +18°C° 0,4 mm 2 m/S 745 mmHg 69%
    12:00 +18°C° 0,9 mm 2 m/S 745 mmHg 71%
    13:00 +18°C° 0,9 mm 2 m/S 745 mmHg 74%
    14:00 +18°C° 0,9 mm 3 m/S 745 mmHg 76%
    15:00 +18°C° 0,4 mm 2 m/S 746 mmHg 74%
    16:00 +18°C° 0,4 mm 2 m/S 746 mmHg 71%
    17:00 +18°C° 0,4 mm 2 m/S 746 mmHg 69%
    18:00 +17°C° 0,1 mm 2 m/S 746 mmHg 74%
    19:00 +16°C° 0,1 mm 1 m/S 746 mmHg 79%
    20:00 +15°C° 0,1 mm 1 m/S 746 mmHg 84%
    21:00 +14°C° 0 mm 1 m/S 746 mmHg 85%
    22:00 +12°C° 0 mm 1 m/S 747 mmHg 87%
    23:00 +11°C° 0 mm 1 m/S 747 mmHg 89%

    25 Juni, Montag

    Zeit Temperatur Niederschläge Wind Luftdruck Luftfeuchtigkeit
    00:00 +11°C° 0 mm 1 m/S 747 mmHg 90%
    01:00 +11°C° 0 mm 1 m/S 747 mmHg 91%
    02:00 +10°C° 0 mm 1 m/S 747 mmHg 92%
    03:00 +10°C° 0 mm 1 m/S 748 mmHg 91%
    04:00 +11°C° 0 mm 1 m/S 748 mmHg 91%
    05:00 +11°C° 0 mm 1 m/S 748 mmHg 90%
    06:00 +13°C° 0 mm 2 m/S 748 mmHg 81%
    07:00 +15°C° 0 mm 2 m/S 748 mmHg 72%
    08:00 +16°C° 0 mm 2 m/S 749 mmHg 63%
    09:00 +17°C° 0,1 mm 2 m/S 749 mmHg 57%
    10:00 +18°C° 0,1 mm 3 m/S 749 mmHg 51%
    11:00 +19°C° 0,1 mm 3 m/S 749 mmHg 45%
    12:00 +20°C° 0 mm 3 m/S 749 mmHg 42%
    13:00 +20°C° 0 mm 3 m/S 749 mmHg 40%
    14:00 +21°C° 0 mm 3 m/S 749 mmHg 37%
    15:00 +20°C° 0 mm 3 m/S 749 mmHg 42%
    16:00 +20°C° 0 mm 3 m/S 749 mmHg 46%
    17:00 +19°C° 0 mm 3 m/S 749 mmHg 50%
    18:00 +17°C° 0 mm 3 m/S 749 mmHg 60%
    19:00 +16°C° 0 mm 2 m/S 749 mmHg 69%
    20:00 +14°C° 0 mm 2 m/S 749 mmHg 79%
    21:00 +14°C° 0,1 mm 2 m/S 749 mmHg 84%
    22:00 +13°C° 0,1 mm 1 m/S 749 mmHg 89%
    23:00 +12°C° 0,1 mm 1 m/S 749 mmHg 94%
    Mehr zeigen